QPF
0.01 0.02 0.02 0.01 0.02 0.02 0.02 0.01 0.01 0.01 0.01 0.02 0.02 0.01 0.01 0.01 0.02 0.05 0.10 0.10 0.08 0.11 0.14 0.12 0.09 0.07 0.07 0.06 0.05 0.04 0.05 0.06 0.05 0.04 0.05 0.04 0.03 0.04 0.05 0.07 0.09 0.12 0.14 0.17 0.20 0.17 0.14 0.11 0.08
0.02 0.02 0.01 0.01 0.01 0.02 0.02 0.01 0.00 0.00 0.01 0.01 0.01 0.01 0.00 0.01 0.02 0.05 0.08 0.06 0.07 0.09 0.09 0.09 0.10 0.09 0.06 0.03 0.03 0.04 0.05 0.06 0.06 0.05 0.07 0.07 0.06 0.07 0.08 0.10 0.12 0.18 0.20 0.20 0.20 0.12 0.10 0.08 0.07
0.02 0.02 0.01 0.01 0.02 0.02 0.01 0.01 0.00 0.00 0.00 0.01 0.00 0.00 0.01 0.03 0.03 0.04 0.05 0.03 0.04 0.05 0.04 0.04 0.04 0.03 0.02 0.02 0.02 0.03 0.03 0.04 0.05 0.06 0.09 0.10 0.11 0.11 0.14 0.17 0.21 0.24 0.22 0.18 0.13 0.09 0.08 0.07 0.06
0.01 0.02 0.01 0.01 0.01 0.01 0.01 0.01 0.00 0.00 0.01 0.00 0.00 0.00 0.03 0.04 0.01 0.02 0.03 0.02 0.02 0.01 0.02 0.01 0.01 0.01 0.01 0.02 0.02 0.02 0.03 0.02 0.02 0.04 0.08 0.11 0.14 0.18 0.21 0.22 0.22 0.19 0.13 0.10 0.08 0.07 0.06 0.04 0.04
0.01 0.01 0.01 0.01 0.01 0.02 0.01 0.00 0.00 0.00 0.00 0.00 0.00 0.00 0.03 0.04 0.01 0.02 0.02 0.01 0.00 0.00 0.00 0.01 0.01 0.01 0.01 0.01 0.01 0.02 0.02 0.03 0.03 0.03 0.05 0.06 0.09 0.14 0.16 0.16 0.16 0.11 0.06 0.05 0.05 0.03 0.03 0.02 0.02
0.01 0.01 0.02 0.01 0.02 0.02 0.01 0.00 0.00 0.00 0.00 0.00 0.00 0.00 0.03 0.05 0.02 0.02 0.01 0.01 0.01 0.00 0.00 0.00 0.01 0.01 0.01 0.01 0.02 0.01 0.01 0.03 0.03 0.03 0.03 0.04 0.05 0.08 0.09 0.10 0.11 0.09 0.05 0.03 0.02 0.01 0.01 0.02 0.02
0.01 0.01 0.02 0.01 0.02 0.01 0.01 0.00 0.00 0.00 0.00 0.00 0.00 0.00 0.02 0.06 0.04 0.02 0.01 0.01 0.01 0.00 0.00 0.00 0.00 0.00 0.01 0.01 0.02 0.02 0.02 0.03 0.04 0.03 0.04 0.03 0.03 0.05 0.06 0.07 0.07 0.06 0.04 0.03 0.01 0.01 0.01 0.01 0.02
0.01 0.01 0.02 0.02 0.01 0.01 0.01 0.00 0.00 0.00 0.00 0.00 0.00 0.00 0.01 0.02 0.03 0.02 0.02 0.01 0.01 0.01 0.00 0.00 0.00 0.00 0.00 0.00 0.01 0.02 0.02 0.02 0.03 0.04 0.04 0.03 0.03 0.04 0.04 0.04 0.04 0.05 0.04 0.03 0.02 0.01 0.01 0.01 0.02
0.01 0.02 0.02 0.02 0.01 0.02 0.01 0.00 0.00 0.00 0.00 0.00 0.00 0.00 0.00 0.00 0.01 0.02 0.03 0.03 0.01 0.01 0.01 0.01 0.00 0.00 0.00 0.00 0.01 0.02 0.01 0.02 0.03 0.04 0.04 0.04 0.03 0.03 0.02 0.03 0.04 0.04 0.04 0.02 0.02 0.01 0.01 0.01 0.01
0.00 0.01 0.01 0.01 0.01 0.01 0.01 0.00 0.00 0.01 0.00 0.00 0.00 0.00 0.00 0.00 0.00 0.00 0.01 0.02 0.01 0.01 0.02 0.02 0.01 0.01 0.00 0.00 0.01 0.01 0.01 0.01 0.02 0.02 0.03 0.06 0.06 0.02 0.03 0.04 0.03 0.04 0.04 0.03 0.03 0.02 0.01 0.01 0.01
0.00 0.00 0.00 0.00 0.00 0.00 0.01 0.01 0.00 0.01 0.00 0.00 0.00 0.00 0.00 0.00 0.00 0.00 0.00 0.01 0.01 0.01 0.02 0.04 0.03 0.03 0.02 0.01 0.01 0.01 0.01 0.01 0.01 0.02 0.03 0.07 0.04 0.02 0.02 0.01 0.01 0.01 0.02 0.04 0.04 0.02 0.02 0.02 0.02
0.00 0.00 0.00 0.00 0.00 0.00 0.00 0.01 0.01 0.01 0.00 0.00 0.00 0.00 0.00 0.00 0.00 0.00 0.00 0.01 0.00 0.00 0.01 0.01 0.02 0.04 0.03 0.02 0.02 0.02 0.02 0.02 0.01 0.02 0.03 0.03 0.02 0.01 0.01 0.01 0.01 0.02 0.03 0.04 0.04 0.03 0.03 0.03 0.04
0.00 0.00 0.00 0.00 0.00 0.00 0.00 0.01 0.02 0.02 0.01 0.00 0.00 0.00 0.00 0.00 0.00 0.00 0.00 0.00 0.00 0.00 0.01 0.01 0.01 0.01 0.01 0.02 0.03 0.03 0.03 0.01 0.01 0.01 0.02 0.01 0.01 0.01 0.01 0.01 0.02 0.03 0.04 0.06 0.06 0.05 0.04 0.05 0.08
0.00 0.00 0.00 0.00 0.00 0.00 0.00 0.03 0.06 0.02 0.01 0.01 0.00 0.01 0.01 0.01 0.01 0.00 0.00 0.00 0.00 0.00 0.00 0.00 0.01 0.00 0.01 0.01 0.02 0.03 0.02 0.01 0.01 0.01 0.01 0.01 0.01 0.01 0.01 0.01 0.02 0.02 0.03 0.05 0.05 0.04 0.06 0.08 0.09
0.00 0.00 0.00 0.00 0.00 0.00 0.01 0.03 0.06 0.03 0.02 0.02 0.03 0.02 0.04 0.02 0.01 0.00 0.00 0.00 0.00 0.00 0.00 0.00 0.00 0.00 0.01 0.01 0.02 0.02 0.01 0.01 0.01 0.01 0.01 0.01 0.01 0.01 0.01 0.01 0.01 0.01 0.02 0.03 0.03 0.03 0.04 0.05 0.05
0.00 0.00 0.00 0.00 0.00 0.00 0.01 0.03 0.04 0.04 0.05 0.03 0.03 0.02 0.02 0.01 0.01 0.00 0.00 0.00 0.00 0.00 0.00 0.00 0.00 0.00 0.00 0.00 0.01 0.02 0.01 0.02 0.02 0.01 0.02 0.02 0.01 0.01 0.02 0.01 0.01 0.01 0.01 0.02 0.02 0.02 0.03 0.03 0.03
0.00 0.00 0.00 0.00 0.01 0.00 0.01 0.02 0.02 0.03 0.08 0.07 0.03 0.03 0.01 0.01 0.01 0.01 0.00 0.00 0.00 0.00 0.00 0.00 0.00 0.01 0.01 0.01 0.01 0.02 0.01 0.02 0.02 0.03 0.03 0.03 0.02 0.02 0.02 0.01 0.01 0.01 0.01 0.02 0.02 0.02 0.04 0.03 0.02
0.00 0.01 0.01 0.01 0.00 0.00 0.01 0.01 0.02 0.03 0.05 0.08 0.04 0.03 0.01 0.01 0.01 0.01 0.01 0.00 0.00 0.01 0.02 0.03 0.02 0.02 0.01 0.01 0.01 0.01 0.01 0.02 0.02 0.03 0.04 0.03 0.04 0.03 0.02 0.01 0.01 0.01 0.02 0.03 0.03 0.03 0.03 0.03 0.03
0.00 0.01 0.01 0.01 0.01 0.01 0.00 0.01 0.01 0.02 0.05 0.06 0.05 0.01 0.02 0.01 0.01 0.01 0.02 0.02 0.01 0.02 0.04 0.04 0.04 0.03 0.02 0.01 0.01 0.01 0.01 0.01 0.02 0.04 0.09 0.04 0.03 0.02 0.02 0.01 0.02 0.02 0.03 0.03 0.04 0.04 0.02 0.02 0.02
0.00 0.00 0.01 0.01 0.01 0.01 0.01 0.01 0.02 0.03 0.07 0.04 0.02 0.01 0.01 0.01 0.01 0.01 0.01 0.01 0.01 0.02 0.02 0.02 0.04 0.03 0.02 0.01 0.01 0.01 0.02 0.02 0.02 0.03 0.04 0.04 0.03 0.02 0.02 0.02 0.03 0.03 0.02 0.02 0.04 0.04 0.02 0.02 0.03
0.00 0.00 0.00 0.00 0.01 0.02 0.01 0.02 0.02 0.02 0.03 0.03 0.02 0.02 0.03 0.01 0.02 0.01 0.00 0.01 0.01 0.02 0.03 0.02 0.03 0.03 0.02 0.01 0.01 0.01 0.01 0.03 0.05 0.06 0.06 0.04 0.04 0.04 0.03 0.03 0.03 0.03 0.03 0.03 0.04 0.04 0.04 0.02 0.03
0.00 0.00 0.00 0.00 0.00 0.01 0.01 0.01 0.02 0.02 0.03 0.04 0.04 0.03 0.05 0.03 0.03 0.02 0.01 0.00 0.01 0.01 0.03 0.02 0.02 0.03 0.02 0.01 0.02 0.02 0.02 0.02 0.03 0.04 0.05 0.05 0.06 0.06 0.06 0.05 0.04 0.03 0.03 0.03 0.04 0.04 0.04 0.03 0.03
0.00 0.00 0.00 0.00 0.01 0.01 0.02 0.02 0.01 0.02 0.03 0.06 0.10 0.06 0.04 0.02 0.01 0.01 0.01 0.01 0.01 0.02 0.02 0.01 0.03 0.05 0.03 0.03 0.04 0.03 0.02 0.02 0.03 0.05 0.07 0.07 0.07 0.09 0.09 0.08 0.09 0.06 0.04 0.03 0.03 0.05 0.06 0.05 0.05
0.00 0.00 0.00 0.00 0.00 0.01 0.02 0.02 0.01 0.01 0.02 0.07 0.07 0.05 0.04 0.02 0.02 0.02 0.01 0.02 0.01 0.01 0.01 0.01 0.03 0.05 0.04 0.04 0.04 0.05 0.04 0.04 0.06 0.07 0.07 0.07 0.08 0.09 0.07 0.05 0.06 0.04 0.03 0.03 0.03 0.02 0.04 0.05 0.05
0.00 0.00 0.00 0.00 0.00 0.00 0.01 0.01 0.01 0.01 0.01 0.02 0.02 0.02 0.03 0.03 0.02 0.02 0.02 0.02 0.01 0.01 0.01 0.01 0.02 0.03 0.03 0.03 0.03 0.04 0.05 0.06 0.06 0.08 0.07 0.07 0.09 0.08 0.07 0.05 0.05 0.05 0.03 0.03 0.03 0.03 0.04 0.05 0.05
0.00 0.00 0.00 0.00 0.00 0.00 0.01 0.01 0.01 0.02 0.03 0.01 0.01 0.02 0.03 0.03 0.03 0.03 0.02 0.02 0.01 0.01 0.01 0.01 0.01 0.01 0.02 0.04 0.04 0.04 0.04 0.06 0.08 0.08 0.08 0.08 0.08 0.07 0.06 0.05 0.05 0.05 0.05 0.05 0.05 0.04 0.05 0.06 0.06
0.00 0.00 0.00 0.00 0.00 0.00 0.01 0.02 0.03 0.03 0.02 0.01 0.01 0.02 0.04 0.04 0.03 0.04 0.02 0.02 0.03 0.03 0.01 0.01 0.00 0.01 0.02 0.03 0.05 0.04 0.03 0.04 0.07 0.07 0.09 0.12 0.11 0.06 0.05 0.06 0.06 0.07 0.07 0.07 0.07 0.07 0.09 0.09 0.07
0.00 0.00 0.00 0.01 0.01 0.00 0.01 0.03 0.05 0.07 0.01 0.01 0.01 0.03 0.04 0.04 0.03 0.04 0.03 0.03 0.05 0.06 0.03 0.02 0.02 0.03 0.04 0.05 0.05 0.05 0.05 0.06 0.07 0.06 0.06 0.06 0.07 0.06 0.06 0.05 0.07 0.07 0.07 0.08 0.09 0.10 0.11 0.11 0.08
0.00 0.00 0.00 0.00 0.01 0.00 0.01 0.03 0.03 0.04 0.01 0.01 0.02 0.04 0.03 0.03 0.03 0.04 0.04 0.04 0.05 0.05 0.04 0.04 0.05 0.07 0.08 0.08 0.06 0.07 0.08 0.09 0.08 0.06 0.05 0.06 0.07 0.08 0.08 0.06 0.06 0.07 0.09 0.11 0.11 0.09 0.10 0.10 0.09
0.00 0.00 0.00 0.00 0.00 0.00 0.00 0.01 0.02 0.04 0.01 0.01 0.02 0.03 0.03 0.02 0.03 0.04 0.06 0.07 0.06 0.05 0.05 0.07 0.09 0.09 0.09 0.10 0.11 0.12 0.09 0.08 0.07 0.07 0.07 0.08 0.09 0.10 0.13 0.15 0.11 0.10 0.11 0.10 0.09 0.09 0.09 0.08 0.08
MSLP
1007.26 1008.20 1009.41 1010.68 1011.84 1012.73 1013.26 1013.43 1013.32 1013.07 1012.84 1012.78 1012.96 1013.39 1014.00 1014.68 1015.29 1015.71 1015.89 1015.83 1015.57 1015.21 1014.85 1014.55 1014.37 1014.29 1014.27 1014.27 1014.23 1014.12 1013.97 1013.79 1013.64 1013.56 1013.59 1013.71 1013.90 1014.10 1014.27 1014.36 1014.37 1014.30 1014.19 1014.09 1014.04 1014.07 1014.18 1014.37 1014.60
1007.81 1009.02 1010.40 1011.74 1012.84 1013.57 1013.87 1013.78 1013.41 1012.94 1012.54 1012.38 1012.50 1012.91 1013.53 1014.23 1014.86 1015.31 1015.53 1015.52 1015.33 1015.05 1014.77 1014.55 1014.45 1014.43 1014.46 1014.48 1014.46 1014.36 1014.22 1014.06 1013.93 1013.88 1013.93 1014.06 1014.26 1014.46 1014.62 1014.70 1014.70 1014.64 1014.56 1014.48 1014.47 1014.52 1014.65 1014.85 1015.07
1008.60 1010.03 1011.53 1012.87 1013.86 1014.39 1014.44 1014.08 1013.47 1012.81 1012.29 1012.05 1012.16 1012.57 1013.20 1013.91 1014.56 1015.02 1015.25 1015.25 1015.10 1014.88 1014.67 1014.54 1014.51 1014.57 1014.66 1014.74 1014.75 1014.70 1014.58 1014.45 1014.34 1014.30 1014.35 1014.47 1014.63 1014.80 1014.94 1015.01 1015.02 1014.98 1014.92 1014.90 1014.92 1015.01 1015.16 1015.35 1015.55
1009.60 1011.18 1012.72 1013.99 1014.82 1015.13 1014.93 1014.34 1013.53 1012.74 1012.14 1011.88 1011.99 1012.42 1013.07 1013.78 1014.41 1014.86 1015.08 1015.09 1014.96 1014.77 1014.63 1014.57 1014.62 1014.74 1014.91 1015.04 1015.11 1015.10 1015.03 1014.92 1014.83 1014.79 1014.81 1014.90 1015.02 1015.15 1015.26 1015.31 1015.32 1015.31 1015.30 1015.33 1015.40 1015.52 1015.68 1015.86 1016.02
1010.69 1012.33 1013.84 1014.98 1015.63 1015.71 1015.30 1014.53 1013.60 1012.74 1012.13 1011.88 1012.02 1012.48 1013.13 1013.83 1014.44 1014.85 1015.04 1015.04 1014.92 1014.77 1014.67 1014.67 1014.79 1014.98 1015.20 1015.39 1015.50 1015.54 1015.50 1015.42 1015.34 1015.29 1015.30 1015.35 1015.43 1015.52 1015.59 1015.63 1015.65 1015.66 1015.70 1015.77 1015.88 1016.02 1016.19 1016.34 1016.47
1011.73 1013.35 1014.74 1015.72 1016.17 1016.07 1015.50 1014.62 1013.65 1012.80 1012.23 1012.04 1012.23 1012.72 1013.37 1014.05 1014.61 1014.97 1015.13 1015.12 1015.01 1014.89 1014.83 1014.88 1015.04 1015.27 1015.53 1015.74 1015.89 1015.95 1015.94 1015.88 1015.82 1015.78 1015.77 1015.80 1015.85 1015.91 1015.95 1015.98 1016.00 1016.03 1016.09 1016.19 1016.33 1016.48 1016.64 1016.77 1016.87
1012.58 1014.08 1015.30 1016.08 1016.35 1016.11 1015.46 1014.57 1013.65 1012.88 1012.42 1012.32 1012.57 1013.08 1013.72 1014.35 1014.85 1015.17 1015.29 1015.27 1015.18 1015.09 1015.08 1015.17 1015.35 1015.60 1015.86 1016.07 1016.22 1016.29 1016.29 1016.26 1016.22 1016.20 1016.21 1016.24 1016.28 1016.32 1016.34 1016.36 1016.37 1016.41 1016.48 1016.58 1016.72 1016.87 1017.01 1017.11 1017.18
1013.10 1014.41 1015.42 1016.01 1016.12 1015.80 1015.16 1014.34 1013.55 1012.94 1012.62 1012.64 1012.95 1013.47 1014.08 1014.65 1015.09 1015.36 1015.46 1015.44 1015.38 1015.34 1015.37 1015.49 1015.69 1015.92 1016.15 1016.34 1016.47 1016.52 1016.53 1016.52 1016.52 1016.54 1016.58 1016.64 1016.69 1016.74 1016.76 1016.76 1016.77 1016.79 1016.84 1016.92 1017.03 1017.16 1017.27 1017.35 1017.39
1013.25 1014.31 1015.09 1015.48 1015.49 1015.16 1014.59 1013.93 1013.33 1012.93 1012.80 1012.94 1013.31 1013.83 1014.38 1014.88 1015.25 1015.47 1015.55 1015.56 1015.54 1015.56 1015.64 1015.79 1015.99 1016.20 1016.39 1016.53 1016.61 1016.64 1016.65 1016.66 1016.70 1016.78 1016.88 1016.99 1017.09 1017.15 1017.18 1017.18 1017.16 1017.15 1017.16 1017.20 1017.27 1017.35 1017.43 1017.49 1017.52
1013.05 1013.84 1014.38 1014.61 1014.54 1014.25 1013.81 1013.36 1013.01 1012.85 1012.91 1013.17 1013.59 1014.09 1014.58 1014.99 1015.28 1015.45 1015.54 1015.57 1015.62 1015.70 1015.83 1016.01 1016.21 1016.39 1016.53 1016.61 1016.65 1016.65 1016.66 1016.70 1016.79 1016.93 1017.10 1017.28 1017.43 1017.53 1017.57 1017.57 1017.52 1017.47 1017.44 1017.42 1017.44 1017.47 1017.51 1017.55 1017.58
1012.62 1013.15 1013.45 1013.53 1013.43 1013.20 1012.94 1012.73 1012.63 1012.71 1012.95 1013.32 1013.77 1014.22 1014.63 1014.95 1015.17 1015.30 1015.38 1015.46 1015.56 1015.72 1015.91 1016.13 1016.33 1016.49 1016.58 1016.61 1016.60 1016.57 1016.58 1016.65 1016.79 1016.99 1017.24 1017.48 1017.69 1017.84 1017.90 1017.90 1017.84 1017.75 1017.67 1017.60 1017.56 1017.55 1017.56 1017.57 1017.60
1012.15 1012.41 1012.50 1012.46 1012.34 1012.20 1012.11 1012.12 1012.27 1012.55 1012.94 1013.40 1013.85 1014.25 1014.57 1014.80 1014.94 1015.03 1015.11 1015.22 1015.38 1015.60 1015.85 1016.10 1016.32 1016.46 1016.53 1016.52 1016.48 1016.45 1016.46 1016.55 1016.73 1016.99 1017.29 1017.59 1017.85 1018.04 1018.13 1018.13 1018.07 1017.96 1017.85 1017.75 1017.67 1017.62 1017.60 1017.60 1017.62
1011.82 1011.84 1011.75 1011.59 1011.45 1011.39 1011.45 1011.65 1011.99 1012.44 1012.94 1013.43 1013.87 1014.21 1014.43 1014.57 1014.63 1014.68 1014.76 1014.90 1015.10 1015.37 1015.67 1015.95 1016.18 1016.33 1016.39 1016.38 1016.34 1016.30 1016.32 1016.43 1016.64 1016.93 1017.26 1017.59 1017.89 1018.10 1018.22 1018.25 1018.20 1018.10 1017.98 1017.87 1017.78 1017.71 1017.68 1017.67 1017.68
1011.78 1011.60 1011.35 1011.10 1010.94 1010.92 1011.08 1011.41 1011.87 1012.41 1012.96 1013.46 1013.85 1014.12 1014.26 1014.31 1014.32 1014.33 1014.39 1014.54 1014.77 1015.06 1015.39 1015.70 1015.94 1016.11 1016.19 1016.20 1016.17 1016.16 1016.21 1016.33 1016.54 1016.83 1017.16 1017.50 1017.80 1018.03 1018.17 1018.23 1018.21 1018.15 1018.06 1017.97 1017.90 1017.84 1017.81 1017.80 1017.80
1012.08 1011.74 1011.36 1011.03 1010.84 1010.84 1011.05 1011.43 1011.93 1012.49 1013.03 1013.48 1013.81 1014.01 1014.08 1014.07 1014.03 1014.02 1014.07 1014.21 1014.44 1014.73 1015.06 1015.37 1015.63 1015.83 1015.94 1016.00 1016.02 1016.06 1016.12 1016.26 1016.46 1016.72 1017.02 1017.32 1017.60 1017.82 1017.98 1018.08 1018.11 1018.11 1018.08 1018.05 1018.02 1018.00 1017.99 1017.99 1017.99
1012.66 1012.21 1011.74 1011.36 1011.15 1011.13 1011.33 1011.69 1012.16 1012.66 1013.13 1013.50 1013.75 1013.87 1013.89 1013.86 1013.80 1013.78 1013.82 1013.95 1014.16 1014.42 1014.72 1015.03 1015.30 1015.52 1015.68 1015.80 1015.90 1015.99 1016.10 1016.23 1016.41 1016.63 1016.86 1017.10 1017.33 1017.53 1017.70 1017.83 1017.92 1018.00 1018.05 1018.10 1018.14 1018.18 1018.20 1018.22 1018.22
1013.37 1012.88 1012.38 1011.99 1011.76 1011.72 1011.86 1012.14 1012.50 1012.88 1013.21 1013.46 1013.62 1013.69 1013.69 1013.65 1013.61 1013.61 1013.66 1013.77 1013.95 1014.17 1014.42 1014.69 1014.96 1015.21 1015.43 1015.63 1015.80 1015.97 1016.12 1016.27 1016.42 1016.58 1016.73 1016.89 1017.05 1017.21 1017.37 1017.53 1017.68 1017.83 1017.98 1018.11 1018.23 1018.33 1018.40 1018.44 1018.45
1014.03 1013.57 1013.12 1012.76 1012.54 1012.48 1012.54 1012.70 1012.89 1013.08 1013.24 1013.34 1013.39 1013.41 1013.40 1013.40 1013.42 1013.46 1013.54 1013.66 1013.80 1013.98 1014.17 1014.40 1014.64 1014.91 1015.19 1015.47 1015.74 1015.98 1016.19 1016.36 1016.49 1016.58 1016.66 1016.72 1016.80 1016.91 1017.05 1017.22 1017.43 1017.65 1017.87 1018.08 1018.27 1018.43 1018.54 1018.62 1018.65
1014.49 1014.12 1013.79 1013.54 1013.38 1013.31 1013.29 1013.29 1013.28 1013.24 1013.17 1013.09 1013.02 1012.98 1013.00 1013.06 1013.16 1013.29 1013.44 1013.57 1013.70 1013.83 1013.97 1014.14 1014.36 1014.64 1014.97 1015.33 1015.69 1016.02 1016.30 1016.50 1016.61 1016.66 1016.65 1016.63 1016.63 1016.68 1016.78 1016.95 1017.18 1017.45 1017.73 1018.00 1018.24 1018.44 1018.59 1018.69 1018.74
1014.63 1014.45 1014.32 1014.24 1014.20 1014.15 1014.05 1013.88 1013.63 1013.32 1012.99 1012.70 1012.49 1012.39 1012.42 1012.57 1012.78 1013.03 1013.26 1013.45 1013.59 1013.69 1013.78 1013.90 1014.10 1014.39 1014.75 1015.19 1015.64 1016.06 1016.41 1016.65 1016.76 1016.77 1016.71 1016.62 1016.54 1016.52 1016.59 1016.74 1016.97 1017.26 1017.56 1017.85 1018.11 1018.33 1018.50 1018.62 1018.70
1014.46 1014.53 1014.67 1014.83 1014.95 1014.95 1014.79 1014.45 1013.94 1013.33 1012.71 1012.18 1011.80 1011.63 1011.67 1011.90 1012.24 1012.61 1012.96 1013.22 1013.40 1013.49 1013.56 1013.65 1013.83 1014.12 1014.52 1015.02 1015.55 1016.06 1016.48 1016.76 1016.90 1016.90 1016.79 1016.65 1016.51 1016.44 1016.46 1016.58 1016.79 1017.06 1017.35 1017.64 1017.89 1018.10 1018.27 1018.40 1018.50
1014.07 1014.45 1014.91 1015.35 1015.66 1015.74 1015.53 1015.01 1014.24 1013.31 1012.38 1011.58 1011.01 1010.73 1010.76 1011.05 1011.50 1012.01 1012.48 1012.84 1013.07 1013.19 1013.26 1013.34 1013.50 1013.80 1014.24 1014.79 1015.39 1015.97 1016.46 1016.80 1016.97 1016.97 1016.85 1016.67 1016.50 1016.38 1016.36 1016.44 1016.62 1016.85 1017.11 1017.36 1017.57 1017.75 1017.90 1018.03 1018.14
1013.64 1014.34 1015.14 1015.87 1016.38 1016.54 1016.27 1015.58 1014.55 1013.31 1012.06 1010.96 1010.17 1009.76 1009.75 1010.06 1010.59 1011.21 1011.80 1012.27 1012.58 1012.75 1012.84 1012.93 1013.10 1013.41 1013.88 1014.48 1015.14 1015.78 1016.33 1016.72 1016.92 1016.94 1016.83 1016.64 1016.44 1016.30 1016.24 1016.29 1016.42 1016.61 1016.82 1017.02 1017.19 1017.33 1017.45 1017.56 1017.69
1013.31 1014.33 1015.43 1016.43 1017.12 1017.35 1017.02 1016.17 1014.88 1013.34 1011.78 1010.40 1009.38 1008.81 1008.71 1009.01 1009.58 1010.28 1010.97 1011.52 1011.91 1012.14 1012.28 1012.40 1012.60 1012.94 1013.44 1014.07 1014.77 1015.46 1016.05 1016.48 1016.72 1016.76 1016.66 1016.48 1016.29 1016.14 1016.07 1016.09 1016.20 1016.35 1016.51 1016.66 1016.78 1016.88 1016.97 1017.07 1017.20
1013.20 1014.47 1015.84 1017.04 1017.87 1018.13 1017.74 1016.74 1015.23 1013.42 1011.58 1009.93 1008.69 1007.95 1007.73 1007.98 1008.55 1009.29 1010.03 1010.66 1011.11 1011.41 1011.61 1011.78 1012.02 1012.39 1012.92 1013.58 1014.31 1015.02 1015.64 1016.10 1016.36 1016.43 1016.36 1016.20 1016.02 1015.88 1015.82 1015.85 1015.94 1016.07 1016.20 1016.32 1016.41 1016.48 1016.54 1016.63 1016.76
1013.31 1014.78 1016.31 1017.65 1018.54 1018.80 1018.35 1017.21 1015.52 1013.50 1011.44 1009.59 1008.15 1007.25 1006.92 1007.08 1007.61 1008.33 1009.08 1009.75 1010.26 1010.61 1010.87 1011.10 1011.39 1011.81 1012.37 1013.04 1013.78 1014.50 1015.13 1015.59 1015.86 1015.96 1015.91 1015.79 1015.65 1015.55 1015.52 1015.56 1015.67 1015.81 1015.94 1016.05 1016.13 1016.19 1016.25 1016.33 1016.46
1013.59 1015.16 1016.77 1018.14 1019.03 1019.25 1018.72 1017.49 1015.68 1013.54 1011.34 1009.36 1007.79 1006.77 1006.32 1006.39 1006.84 1007.51 1008.23 1008.90 1009.43 1009.83 1010.15 1010.44 1010.79 1011.24 1011.83 1012.51 1013.25 1013.95 1014.56 1015.02 1015.29 1015.40 1015.38 1015.30 1015.22 1015.17 1015.20 1015.30 1015.45 1015.63 1015.79 1015.92 1016.01 1016.08 1016.14 1016.22 1016.36
1013.91 1015.48 1017.06 1018.38 1019.19 1019.34 1018.75 1017.46 1015.62 1013.45 1011.22 1009.21 1007.60 1006.51 1005.99 1005.96 1006.32 1006.90 1007.57 1008.20 1008.73 1009.16 1009.52 1009.87 1010.27 1010.77 1011.37 1012.06 1012.77 1013.44 1014.02 1014.44 1014.70 1014.82 1014.84 1014.81 1014.79 1014.82 1014.93 1015.11 1015.33 1015.57 1015.78 1015.96 1016.09 1016.18 1016.25 1016.34 1016.47
1014.11 1015.60 1017.05 1018.23 1018.92 1018.97 1018.33 1017.04 1015.25 1013.16 1011.03 1009.10 1007.54 1006.46 1005.91 1005.81 1006.08 1006.57 1007.15 1007.73 1008.24 1008.68 1009.07 1009.47 1009.92 1010.45 1011.06 1011.73 1012.41 1013.03 1013.56 1013.94 1014.18 1014.30 1014.35 1014.38 1014.44 1014.57 1014.77 1015.05 1015.36 1015.68 1015.96 1016.20 1016.36 1016.48 1016.58 1016.67 1016.79
1014.11 1015.43 1016.67 1017.65 1018.17 1018.11 1017.45 1016.22 1014.56 1012.65 1010.72 1008.97 1007.55 1006.57 1006.03 1005.90 1006.10 1006.50 1006.99 1007.50 1007.98 1008.41 1008.84 1009.27 1009.76 1010.32 1010.93 1011.57 1012.20 1012.76 1013.22 1013.56 1013.77 1013.90 1013.98 1014.08 1014.23 1014.46 1014.77 1015.15 1015.57 1015.97 1016.32 1016.61 1016.82 1016.96 1017.07 1017.16 1017.26
Thickness
5857 5857 5853 5840 5813 5787 5780 5792 5803 5802 5800 5806 5810 5804 5792 5783 5772 5760 5778 5787 5786 5785 5785 5784 5784 5784 5783 5783 5783 5782 5782 5781 5781 5781 5780 5779 5778 5777 5775 5773 5772 5770 5768 5766 5765 5763 5761 5759 5758
5860 5858 5847 5828 5794 5768 5776 5796 5801 5805 5808 5813 5811 5804 5794 5784 5787 5781 5782 5786 5787 5785 5785 5784 5783 5783 5782 5782 5781 5781 5780 5780 5779 5779 5778 5777 5776 5775 5773 5772 5770 5768 5766 5765 5763 5761 5760 5758 5756
5863 5858 5834 5810 5789 5777 5782 5800 5805 5812 5819 5817 5808 5806 5795 5785 5788 5786 5788 5789 5787 5786 5785 5784 5783 5782 5781 5781 5780 5780 5779 5778 5778 5777 5776 5775 5774 5773 5772 5770 5768 5767 5765 5763 5761 5760 5759 5757 5755
5861 5845 5828 5802 5789 5801 5806 5809 5815 5811 5814 5816 5809 5797 5797 5801 5797 5793 5792 5790 5787 5785 5784 5784 5782 5781 5780 5779 5779 5778 5778 5777 5776 5775 5774 5773 5772 5771 5769 5768 5766 5765 5763 5761 5760 5759 5757 5756 5754
5857 5831 5805 5789 5795 5811 5820 5823 5822 5813 5809 5808 5807 5791 5788 5800 5802 5797 5793 5791 5788 5785 5784 5783 5782 5780 5779 5778 5777 5777 5776 5775 5774 5772 5771 5770 5769 5768 5767 5765 5764 5762 5761 5760 5758 5757 5756 5754 5753
5839 5821 5791 5782 5797 5813 5821 5826 5823 5813 5807 5807 5803 5792 5787 5799 5798 5795 5794 5791 5789 5786 5784 5783 5781 5780 5779 5777 5776 5775 5774 5773 5771 5770 5769 5768 5767 5765 5764 5763 5761 5760 5759 5758 5756 5755 5754 5753 5752
5832 5812 5794 5795 5800 5807 5820 5831 5824 5814 5808 5808 5809 5791 5788 5796 5799 5798 5795 5792 5789 5786 5784 5782 5780 5779 5778 5777 5775 5774 5772 5771 5770 5769 5767 5766 5765 5763 5762 5760 5759 5758 5757 5756 5755 5754 5753 5752 5751
5844 5816 5800 5800 5803 5809 5829 5836 5832 5824 5816 5821 5816 5795 5787 5797 5802 5799 5794 5790 5787 5785 5784 5782 5780 5778 5777 5776 5774 5773 5771 5770 5769 5767 5766 5764 5763 5762 5760 5759 5758 5756 5755 5754 5754 5753 5752 5751 5751
5853 5809 5793 5804 5810 5817 5835 5833 5832 5837 5827 5823 5822 5813 5809 5809 5804 5796 5789 5786 5784 5784 5783 5782 5780 5778 5776 5775 5774 5772 5771 5769 5768 5766 5764 5763 5761 5760 5759 5758 5757 5755 5754 5754 5753 5752 5752 5751 5750
5838 5805 5811 5832 5835 5832 5836 5835 5832 5825 5816 5813 5812 5813 5814 5808 5802 5794 5788 5784 5782 5781 5782 5782 5780 5778 5777 5775 5773 5772 5770 5768 5767 5765 5763 5761 5760 5759 5758 5757 5756 5755 5754 5753 5753 5752 5752 5751 5750
5841 5826 5837 5845 5849 5845 5837 5837 5839 5822 5808 5811 5810 5809 5810 5805 5800 5795 5791 5789 5787 5786 5785 5783 5782 5780 5778 5776 5773 5772 5770 5768 5766 5765 5763 5761 5760 5759 5758 5757 5756 5755 5754 5753 5752 5752 5752 5751 5750
5842 5845 5850 5850 5853 5846 5841 5839 5833 5828 5822 5828 5825 5820 5813 5806 5801 5798 5794 5792 5790 5788 5786 5785 5783 5781 5779 5777 5775 5772 5771 5769 5767 5765 5763 5761 5759 5758 5757 5756 5755 5754 5753 5752 5752 5752 5752 5752 5751
5842 5845 5854 5858 5854 5850 5847 5839 5835 5830 5834 5833 5827 5820 5814 5809 5805 5803 5802 5798 5794 5790 5789 5787 5786 5783 5781 5778 5776 5774 5772 5770 5769 5767 5764 5762 5760 5758 5757 5756 5755 5754 5754 5753 5752 5751 5752 5752 5751
5843 5847 5850 5853 5852 5851 5842 5836 5834 5828 5834 5829 5823 5817 5815 5812 5808 5804 5801 5798 5796 5793 5791 5790 5788 5786 5783 5780 5778 5776 5774 5772 5770 5768 5766 5764 5762 5760 5758 5756 5756 5755 5754 5753 5752 5752 5752 5752 5751
5849 5839 5839 5845 5847 5845 5840 5819 5824 5831 5832 5824 5821 5819 5817 5814 5812 5808 5806 5803 5801 5797 5795 5792 5790 5788 5785 5782 5780 5778 5776 5773 5771 5769 5767 5765 5763 5761 5759 5757 5756 5755 5754 5754 5753 5752 5752 5751 5750
5835 5823 5812 5833 5842 5843 5828 5800 5822 5832 5829 5821 5821 5820 5817 5815 5814 5814 5811 5807 5804 5800 5796 5795 5793 5789 5786 5783 5781 5778 5776 5774 5772 5770 5768 5766 5764 5762 5760 5758 5757 5756 5755 5754 5752 5751 5749 5748 5748
5806 5798 5805 5821 5841 5838 5823 5806 5822 5830 5827 5820 5820 5820 5817 5815 5815 5816 5814 5811 5808 5803 5799 5795 5793 5789 5787 5784 5781 5779 5777 5775 5773 5771 5769 5767 5765 5763 5761 5759 5758 5757 5755 5754 5753 5750 5748 5746 5746
5790 5797 5804 5811 5832 5833 5819 5814 5822 5827 5826 5822 5822 5820 5818 5816 5817 5818 5817 5814 5810 5806 5801 5796 5793 5790 5787 5784 5781 5778 5776 5774 5773 5771 5770 5768 5766 5764 5762 5760 5758 5756 5754 5753 5751 5749 5748 5747 5746
5806 5801 5799 5813 5835 5826 5816 5813 5818 5824 5823 5821 5821 5820 5819 5819 5822 5821 5819 5815 5810 5805 5801 5797 5793 5790 5787 5782 5778 5775 5772 5772 5772 5771 5770 5768 5766 5765 5762 5760 5758 5756 5754 5752 5751 5749 5747 5746 5746
5804 5795 5797 5813 5832 5823 5810 5809 5819 5824 5825 5826 5824 5821 5820 5818 5818 5819 5817 5815 5811 5806 5803 5798 5795 5792 5788 5785 5782 5778 5776 5773 5773 5772 5770 5769 5767 5765 5763 5761 5758 5756 5754 5752 5751 5749 5745 5745 5745
5799 5795 5799 5805 5818 5820 5808 5795 5805 5817 5825 5827 5827 5826 5825 5823 5820 5819 5817 5815 5812 5808 5805 5802 5797 5794 5791 5788 5783 5779 5775 5773 5771 5769 5769 5769 5767 5765 5763 5762 5759 5757 5755 5752 5751 5749 5746 5742 5743
5790 5813 5814 5812 5798 5784 5796 5765 5789 5806 5811 5818 5823 5825 5826 5828 5825 5822 5820 5816 5815 5812 5810 5805 5800 5796 5793 5789 5784 5778 5773 5769 5770 5770 5769 5768 5767 5765 5763 5762 5760 5758 5756 5754 5752 5751 5748 5745 5741
5805 5822 5817 5811 5796 5783 5786 5770 5779 5798 5800 5812 5823 5829 5831 5832 5831 5827 5825 5822 5819 5816 5811 5807 5802 5797 5794 5791 5786 5781 5776 5773 5772 5770 5768 5767 5766 5764 5763 5761 5760 5758 5756 5754 5753 5751 5749 5747 5744
5820 5812 5801 5788 5774 5758 5777 5770 5769 5790 5806 5817 5826 5832 5834 5835 5833 5830 5829 5824 5820 5816 5812 5808 5802 5798 5795 5791 5788 5783 5778 5774 5770 5768 5766 5765 5764 5763 5762 5761 5759 5758 5757 5755 5754 5752 5750 5748 5746
5806 5774 5749 5748 5738 5746 5775 5774 5775 5809 5824 5828 5830 5833 5835 5835 5833 5829 5825 5822 5819 5815 5812 5808 5803 5798 5796 5792 5788 5785 5780 5776 5772 5769 5766 5764 5762 5761 5761 5761 5759 5758 5757 5756 5754 5752 5750 5749 5746
5790 5773 5743 5732 5734 5746 5771 5769 5789 5824 5834 5838 5838 5837 5835 5833 5833 5830 5827 5824 5820 5816 5812 5808 5804 5799 5796 5792 5788 5786 5782 5778 5774 5771 5768 5765 5763 5762 5762 5761 5760 5759 5757 5756 5754 5753 5750 5749 5747
5786 5772 5774 5752 5751 5745 5753 5774 5798 5820 5824 5829 5831 5831 5830 5830 5830 5828 5826 5823 5819 5816 5812 5809 5804 5799 5796 5792 5788 5785 5782 5778 5775 5772 5769 5766 5765 5764 5762 5761 5759 5758 5756 5755 5753 5751 5750 5749 5747
5799 5786 5759 5745 5731 5729 5747 5761 5771 5796 5807 5817 5820 5823 5826 5827 5826 5825 5824 5822 5819 5815 5812 5809 5805 5800 5797 5793 5789 5785 5781 5778 5775 5773 5769 5767 5765 5763 5761 5759 5758 5756 5755 5754 5752 5750 5749 5747 5746
5785 5779 5762 5744 5742 5728 5730 5750 5796 5800 5809 5812 5815 5819 5822 5823 5823 5822 5821 5819 5816 5812 5808 5804 5801 5797 5793 5790 5787 5783 5780 5777 5774 5771 5769 5766 5765 5763 5760 5759 5756 5754 5753 5751 5749 5748 5747 5745 5743
5790 5780 5762 5744 5741 5738 5734 5751 5807 5810 5814 5815 5815 5817 5818 5819 5821 5820 5818 5815 5811 5806 5802 5799 5795 5792 5790 5787 5784 5781 5777 5774 5771 5769 5767 5765 5764 5762 5759 5757 5754 5752 5751 5749 5747 5745 5743 5741 5739